Skip Page Navigation
NASA JPL Caltech
NASA Logo - Jet Propulsion Laboratory + View the NASA Portal
+ Center for Near-Earth Object Studies
JPL Home Earth Solar System Stars & Galaxies Technology
JPL Solar System Dynamics
BODIES ORBITS EPHEMERIDES TOOLS PHYSICAL DATA DISCOVERY FAQ SITE MAP
JPL Small-Body Database Browser
Search: [ help ]  
58690 (1998 BP10)
Classification: Main-belt Asteroid          SPK-ID: 2058690
Ephemeris | Orbit Diagram | Orbital Elements | Mission Design | Physical Parameters | Discovery Circumstances | Close-Approach Data ]

[ show orbit diagram ]
Orbital Elements at Epoch 2459200.5 (2020-Dec-17.0) TDB
Reference: JPL 19 (heliocentric ecliptic J2000)
 Element Value Uncertainty (1-sigma)   Units 
e .1698923873383649 3.7419e-08  
a 2.332512434666324 8.5788e-09 au
q 1.93623632864444 8.7838e-08 au
i 6.747194990873416 3.4091e-06 deg
node 120.7467051555902 3.7719e-05 deg
peri 303.4784976357406 3.9384e-05 deg
M 199.9655990375244 1.1923e-05 deg
tp 2459778.922563848656
(2022-Jul-18.42256385)
4.4263e-05 TDB
period 1301.171009065369
3.56
7.1784e-06
1.965e-08
d
yr
n .2766738556975596 1.5264e-09 deg/d
Q 2.728788540688208 1.0036e-08 au
  Orbit Determination Parameters
   # obs. used (total)      735  
   data-arc span      13790 days (37.75 yr)  
   first obs. used      1982-08-21  
   last obs. used      2020-05-23  
   planetary ephem.      DE431  
   SB-pert. ephem.      SB431-N16  
   condition code      0  
   norm. resid. RMS      .53045  
   source      ORB  
   producer      Otto Matic  
   solution date      2020-Nov-12 22:50:00  

Additional Information
 Earth MOID = .958864 au 
 Jupiter MOID = 2.57903 au 
 T_jup = 3.541 
[ hide covariance matrix ]
Orbital Elements at Epoch 2457441.5 (2016-Feb-23.0) TDB
Reference: JPL 19 (heliocentric ecliptic J2000)
 Element Value Uncertainty (1-sigma)   Units 
e .1691666740767167 3.7251e-08  
q 1.938741995124769 8.7274e-08 au
tp 2457177.265505382070
(2015-Jun-03.76550538)
4.1317e-05 TDB
node 120.798642723614 3.7703e-05 deg
peri 303.6915002310529 3.9393e-05 deg
i 6.7473819888294 3.4095e-06 deg
  Orbit Determination Parameters
   # obs. used (total)      735  
   data-arc span      13790 days (37.75 yr)  
   first obs. used      1982-08-21  
   last obs. used      2020-05-23  
   planetary ephem.      DE431  
   SB-pert. ephem.      SB431-N16  
   condition code      0  
   norm. resid. RMS      .53045  
   source      ORB  
   producer      Otto Matic  
   solution date      2020-Nov-12 22:50:00  

Additional Information
 Jupiter MOID = 2.57903 au 
 T_jup = 3.541 
Orbit Covariance (6×6)
  e q tp node peri i
e 1.38763651934176E-15 -3.240017462201336E-15 -4.963344028035251E-13 -1.652475336375855E-14 -1.612500890719244E-13 -1.148666485794666E-15
q -3.240017462201336E-15 7.616781576712041E-15 1.170395756812917E-12 4.007322170498798E-14 3.801494000480258E-13 2.8149191041767E-15
tp -4.963344028035251E-13 1.170395756812917E-12 1.707085012302358E-9 1.04709586788283E-11 4.939122917328587E-10 -5.785193575849523E-13
node -1.652475336375855E-14 4.007322170498798E-14 1.04709586788283E-11 1.421488620674636E-9 -1.407894740119954E-9 7.840873819332299E-12
peri -1.612500890719244E-13 3.801494000480258E-13 4.939122917328587E-10 -1.407894740119954E-9 1.551808369001544E-9 -7.940311039131234E-12
i -1.148666485794666E-15 2.8149191041767E-15 -5.785193575849523E-13 7.840873819332299E-12 -7.940311039131234E-12 1.162474897960667E-11

Ephemeris | Orbit Diagram | Orbital Elements | Mission Design | Physical Parameters | Discovery Circumstances | Close-Approach Data ]

Physical Parameter Table
Parameter Symbol Value Units Sigma Reference Notes
absolute magnitude H 16.03   n/a E2021B10  

58690 (1998 BP10)          Discovered 1998-Jan-27 by Klet at Klet
Reference: 20030614/Numbers.arcLast Updated: 2004-04-19

[ hide close-approach data ]
Close-Approach Data   ...sorted by Date/Time (TDB)
Date/Time (TDB) Time Uncertainty
(days_HH:MM)
Body Nominal Distance (au) Minimum Distance (au) Maximum Distance (au) V-relative (km/s) V-infinity (km/s) JD (TDB) Time Uncertainty (minutes) Semi-major axis (km) Semi-minor axis (km) range-LOV angle (deg) N-sigma BP Orbit Ref. Reference Modified
1940-Nov-07 04:20 < 00:01 Iris 0.034382673878515 0.0343713945277543 0.0343939540084036 4.92724181337997 4.9272417794464 2429940.680682555 0.829416265463672 618.867287030825 34.3472324143311 24.731241799301 63078.6116861719 T 19 CATAB v2.0f-lin.ifort 2020-Nov-12 22:50:03 2020-Nov-12 22:50
2047-Oct-04 04:14 < 00:01 Iris 0.0111400112488226 0.011135691961353 0.011144333314257 4.80705309165777 4.80705298430618 2468987.676364434 0.618429174812966 353.754724603081 33.1272106599034 -52.8266631862228 40167.9428317283 T 19 CATAB v2.0f-lin.ifort 2020-Nov-12 22:50:03 2020-Nov-12 22:50
2154-Aug-31 14:47 00:01 Iris 0.029700023650007 0.0296736370535431 0.0297264105098286 4.75748863505599 4.7574885943706 2508035.115722008 1.36574087882183 1322.6316751087 32.5563553516498 -6.04574622841838 14748.1513197306 T 19 CATAB v2.0f-lin.ifort 2020-Nov-12 22:50:03 2020-Nov-12 22:50
Ephemeris | Orbit Diagram | Orbital Elements | Mission Design | Physical Parameters | Discovery Circumstances | Close-Approach Data ]
ABOUT SSD CREDITS/AWARDS PRIVACY/COPYRIGHT GLOSSARY LINKS
FirstGov 2021-Apr-12 04:26 UT
(server date/time)  
NASA Home Page
Site Manager:   Ryan S. Park
Webmaster  Alan B. Chamberlin